Location: Orange Harbor Mobile Home Park
(26.6923°N, 81.7937°W)
Time: 23:17:27
(UTC+00:00)

Cosmos 1484 Rocket - Pass Details

Date: 19 September 2020
Orbit: 506 x 558 km, 97.4° (Epoch: 25 October)

Event Time Altitude Azimuth Distance (km) Brightness Sun altitude
Rises 10:16:30 0° 3° (N) 2,733 6.5 -13.8°
Reaches altitude 10° 10:18:41 10° 357° (N) 1,840 5.6 -13.3°
Maximum altitude 10:22:30 46° 284° (WNW) 750 3.1 -12.4°
Drops below altitude 10° 10:26:20 10° 210° (SSW) 1,836 5.1 -11.6°
Sets 10:28:30 0° 204° (SSW) 2,726 6.1 -11.1°
